STARLINK-35915 (66521 NORAD) Tracking and Keplerian Element Data

This shows tracking and keplerian element data for the satellite.

Feedback or suggestion? Click here.




ElementValue
Catalog66521
NameSTARLINK-35915
Epoch Orbit489
Epoch Day354.08795783
Epoch Year2025
RAAN11.4483
Inclination42.9994
Eccentricity7.31E-05
Argument of Perigee245.5336
Mean Anonmoly114.5444
Mean Motion15.40721084
Decay Rate0.00030005
L11 66521U 25265F 25354.08795783 .00030005 00000+0 72222-3 0 9991
L22 66521 42.9994 11.4483 0000731 245.5336 114.5444 15.40721084 4895



Live tracking and technical data element details for STARLINK-35915 (NORAD 66521). STARLINK-35915 can be tracked NOW for your location showing map with azimuth and elevation plus other details from your city location.







IsCatalogInMostPopularTable: catalog: 66521, numindb: 4
Update: records affected: 1



GetName: 66521 STARLINK-35915

Hit Count: updated at: Sat, 07 Feb 2026 06:57:46 GMT